User: anonymous   Login
Location: Ashtead
(51.3000°N, 0.3000°W)
Time: 03:58:35
(UTC+00:00)
Language:

Cosmos 468 - Orbit

View from above orbital plane
View from above orbital plane
View from above satellite
View from above satellite

Ground track
Ground track

The orbit data is extracted from the following two-line orbital elements,

1 05705U 71114A   24062.23862611  .00000245  00000-0  93076-4 0  9994
2 05705  74.0209 341.0539 0016175 232.4548 127.5136 14.36127866731037
Epoch (UTC): 02 March 2024 05:43:37
Eccentricity: 0.0016175
inclination: 74.0209°
perigee height: 760 km
apogee height: 783 km
right ascension of ascending node: 341.0539°
argument of perigee: 232.4548°
revolutions per day: 14.36127866
mean anomaly at epoch: 127.5136°
orbit number at epoch: 73103

The dashed part of the orbit path shows where the satellite is in the earth's shadow,  

DLR